Location: Unspecified
(37.0842°N, 0.0000°E)
Time: 06:43:31
(UTC+00:00)

Envisat - Visible Passes

Search period start: 23 May 2019 00:00
Search period end: 02 June 2019 00:00
Orbit: 764 x 766 km, 98.2° (Epoch: 22 May)

Date Brightness Start Highest point End Pass type
(mag) Time Alt. Az. Time Alt. Az. Time Alt. Az.
24 May 5.6 19:40:38 10° SW 19:44:06 19° W 19:47:36 10° NW visible
29 May 5.9 19:56:20 10° WSW 19:58:33 13° W 20:00:47 10° WNW visible
01 Jun 5.7 19:44:00 10° SW 19:47:13 17° W 19:50:26 10° NW visible
